PROGRESS-MS 14 (45595 NORAD) Tracking and Keplerian Element Data

This shows tracking and keplerian element data for the satellite.

Feedback or suggestion? Click here.




ElementValue
Catalog45595
NamePROGRESS-MS 14
Epoch Orbit23517
Epoch Day189.55643604
Epoch Year2020
RAAN247.6545
Inclination51.6438
Eccentricity0.0002912
Argument of Perigee84.6464
Mean Anonmoly59.8951
Mean Motion15.49182088
Decay Rate-1.539E-05
L11 45595U 20026A 20189.55643604 -.00001539 00000-0 -19641-4 0 9996
L22 45595 51.6438 247.6545 0002912 84.6464 59.8951 15.49182088235177

Live tracking and technical data element details for PROGRESS-MS 14 (NORAD 45595). PROGRESS-MS 14 can be tracked NOW for your location showing map with azimuth and elevation plus other details from your city location.

Track the satellite on the map from your city or location and see movement details for azimuth, elevation, latitude, longitude, range, height, and movement on the map or in text.







IsCatalogInMostPopularTable: catalog: 45595, numindb: 28
Update: records affected: 1



GetName: 45595 PROGRESS-MS 14

Hit Count: updated at: Fri, 10 Jul 2020 03:35:31 GMT